EW4486 Weather Reports


Display with metric or nautical units.
time (UTC)temp
F
wind
direction
speed
MPH
gust
MPH
rain 1hr
in
rain 24hr
in
rain mn
in
humidity
%
barometer
mb
20260510201610 71 210 3.0 9.0 0.00 0.00 0.00 29 1015.8
20260510200100 71 221 4.0 12.0 0.00 0.00 0.00 33 1015.8
20260510194605 72 200 4.0 9.0 0.00 0.00 0.00 30 1015.8
20260510193102 71 259 1.0 10.0 0.00 0.00 0.00 31 1015.9
20260510191601 71 48 2.0 9.0 0.00 0.00 0.00 31 1016.2
20260510190100 71 267 4.0 12.0 0.00 0.00 0.00 31 1016.2
20260510184603 70 242 6.0 11.0 0.00 0.00 0.00 32 1016.0
20260510183054 69 232 5.0 14.0 0.00 0.00 0.00 31 1016.2
20260510181606 70 42 3.0 12.0 0.00 0.00 0.00 28 1016.2
20260510180103 69 28 0.0 11.0 0.00 0.00 0.00 27 1016.2
20260510174549 69 265 3.0 10.0 0.00 0.00 0.00 33 1016.5
20260510173050 69 128 3.0 10.0 0.00 0.00 0.00 34 1016.6
20260510171550 68 327 6.0 11.0 0.00 0.00 0.00 28 1016.7
20260510170045 68 328 4.0 12.0 0.00 0.00 0.00 30 1016.7
20260510164545 68 246 3.0 7.0 0.00 0.00 0.00 28 1016.7
20260510163040 67 240 4.0 14.0 0.00 0.00 0.00 32 1016.7
20260510161541 67 235 4.0 10.0 0.00 0.00 0.00 37 1016.7
20260510160039 66 272 2.0 8.0 0.00 0.00 0.00 43 1016.7
20260510154536 66 244 4.0 12.0 0.00 0.00 0.00 46 1016.8
20260510153032 65 243 2.0 7.0 0.00 0.00 0.00 41 1016.9
20260510151536 64 246 5.0 10.0 0.00 0.00 0.00 42 1017.0
20260510150024 64 249 2.0 9.0 0.00 0.00 0.00 47 1017.0
20260510144521 63 63 4.0 10.0 0.00 0.00 0.00 46 1016.9
20260510143016 63 67 4.0 10.0 0.00 0.00 0.00 47 1016.9
20260510141513 62 74 8.0 14.0 0.00 0.00 0.00 47 1016.9
20260510140007 61 40 3.0 9.0 0.00 0.00 0.00 48 1017.0
20260510134505 61 325 3.0 11.0 0.00 0.00 0.00 50 1017.0
20260510133059 60 86 2.0 10.0 0.00 0.00 0.00 52 1017.0
20260510131554 59 42 4.0 10.0 0.00 0.00 0.00 52 1017.0
20260510130050 58 19 4.0 9.0 0.00 0.00 0.00 53 1016.6
20260510124547 58 40 4.0 10.0 0.00 0.00 0.00 53 1016.5
20260510123041 57 326 5.0 11.0 0.00 0.00 0.00 54 1016.2
20260510121536 56 281 5.0 11.0 0.00 0.00 0.00 57 1015.9
20260510120032 55 52 5.0 9.0 0.00 0.00 0.00 57 1015.8
20260510114529 55 65 5.0 9.0 0.00 0.00 0.00 61 1015.5
20260510113023 54 9 3.0 10.0 0.00 0.00 0.00 62 1015.2
20260510111519 53 12 3.0 10.0 0.00 0.00 0.00 65 1014.7
20260510110014 51 97 3.0 8.0 0.00 0.00 0.00 71 1014.6
20260510104511 51 24 3.0 7.0 0.00 0.00 0.00 77 1014.6
20260510103011 51 10 3.0 9.0 0.00 0.00 0.00 79 1014.4
20260510101507 52 53 4.0 8.0 0.00 0.00 0.00 80 1014.1
20260510100005 52 70 4.0 10.0 0.00 0.00 0.00 78 1014.0
20260510094511 53 52 5.0 12.0 0.00 0.00 0.00 72 1013.9
20260510093002 53 355 4.0 11.0 0.00 0.00 0.00 70 1013.7
20260510091600 53 38 5.0 10.0 0.00 0.00 0.00 75 1013.6
20260510090059 53 31 4.0 10.0 0.00 0.00 0.00 80 1013.6
20260510084557 53 71 4.0 10.0 0.00 0.00 0.00 80 1013.5
20260510083106 53 17 4.0 12.0 0.00 0.00 0.00 80 1013.3
20260510081556 53 70 5.0 13.0 0.00 0.00 0.00 81 1013.1
20260510080056 53 26 4.0 11.0 0.00 0.00 0.00 81 1013.1
20260510074550 53 33 3.0 8.0 0.00 0.00 0.00 81 1013.1
20260510073053 53 63 2.0 8.0 0.00 0.00 0.00 80 1013.2
20260510071546 54 248 1.0 5.0 0.00 0.00 0.00 78 1013.3
20260510070044 54 271 0.0 5.0 0.00 0.00 0.00 78 1013.4
20260510064542 54 11 0.0 5.0 0.00 0.00 0.00 77 1013.6
20260510063041 54 330 1.0 6.0 0.00 0.00 0.00 77 1013.7
20260510061540 54 241 1.0 5.0 0.00 0.00 0.00 76 1013.7
20260510060043 54 241 1.0 5.0 0.00 0.00 0.00 76 1013.7
20260510054541 54 14 2.0 6.0 0.00 0.00 0.00 75 1013.7
20260510053036 54 294 1.0 6.0 0.00 0.00 0.00 74 1013.7
20260510051536 55 240 0.0 4.0 0.00 0.00 0.00 72 1013.7
20260510050033 55 238 0.0 2.0 0.00 0.00 0.00 71 1013.8
20260510044531 55 237 1.0 4.0 0.00 0.00 0.00 70 1013.8
20260510043034 56 257 2.0 6.0 0.00 0.00 0.00 69 1013.8
20260510041528 56 236 3.0 5.0 0.00 0.00 0.00 68 1013.8
20260510040027 56 258 2.0 6.0 0.00 0.00 0.00 67 1013.9
20260510034526 56 257 2.0 6.0 0.00 0.00 0.00 67 1014.0
20260510033025 56 248 2.0 6.0 0.00 0.00 0.00 66 1013.9
20260510031525 57 261 2.0 6.0 0.00 0.00 0.00 65 1013.9
20260510030025 57 238 2.0 7.0 0.00 0.00 0.00 64 1013.9
20260510024524 57 247 1.0 6.0 0.00 0.00 0.00 63 1013.7
20260510023024 57 259 1.0 6.0 0.00 0.00 0.00 63 1013.5
20260510021526 57 251 3.0 8.0 0.00 0.00 0.00 63 1013.4
20260510020022 57 231 3.0 7.0 0.00 0.00 0.00 62 1013.3
20260510014524 57 246 1.0 5.0 0.00 0.00 0.00 61 1013.0
20260510013021 58 277 2.0 6.0 0.00 0.00 0.00 59 1012.8
20260510011520 58 198 3.0 8.0 0.00 0.00 0.00 59 1012.3
20260510010019 58 254 1.0 8.0 0.00 0.00 0.00 58 1012.3
20260510004518 58 232 2.0 6.0 0.00 0.00 0.00 57 1011.9
20260510003031 59 304 1.0 6.0 0.00 0.00 0.00 56 1011.8
20260510001522 59 206 1.0 7.0 0.00 0.00 0.00 55 1011.7
20260510000020 60 286 3.0 7.0 0.00 0.00 0.00 55 1011.7
20260509234525 61 322 4.0 8.0 0.00 0.00 0.00 53 1011.7
20260509233015 61 342 3.0 9.0 0.00 0.00 0.00 52 1011.8
20260509231515 62 319 4.0 12.0 0.00 0.00 0.00 51 1011.7
20260509230014 62 19 3.0 11.0 0.00 0.00 0.00 50 1011.5
20260509224513 62 235 4.0 11.0 0.00 0.00 0.00 51 1011.2
20260509223014 63 232 3.0 11.0 0.00 0.00 0.00 52 1011.2
20260509221513 63 279 4.0 13.0 0.00 0.00 0.00 52 1011.1
20260509220022 64 309 5.0 19.0 0.00 0.00 0.00 49 1011.1
20260509214510 64 360 6.0 15.0 0.00 0.00 0.00 51 1011.1
20260509213010 65 281 5.0 14.0 0.00 0.00 0.00 50 1010.6
20260509211507 63 246 2.0 9.0 0.00 0.00 0.00 62 1010.6
20260509210006 63 252 2.0 7.0 0.00 0.00 0.00 65 1010.5
20260509204505 64 202 0.0 7.0 0.00 0.00 0.00 62 1010.4
20260509203009 64 190 3.0 7.0 0.00 0.00 0.00 63 1010.5